Вернуться в каталог

STARLINK-2103

АктивенСвязьVLEO
NORAD 47383·PAYLOAD·🇺🇸 United States

Запущен Jan 20, 2021 с Cape Canaveral Space Force Station

Loading…

Ближайшие Пролёты (ближайшие 24 часа)

TLE

СвежийSource: CelesTrak SupGP

Эпоха: Sep 14, 2026, 20:48 UTC

1 47383C 21005AL  26257.86715278  .00035359  00000+0  79529-3 0  2575
2 47383  53.1549 208.8464 0001635  58.7004  12.7609 15.42720695    12

Отслеживайте STARLINK-2103 в реальном времени с AllMySat

Download on the App Store